GPM-CORE

Last updated on Thu Nov 21 2024 00:02:27 GMT+0000 (Coordinated Universal Time)

1 39574U 14009C 24325.54025953 .00027652 00000+0 59284-3 0 9993 2 39574 64.9821 69.4965 0009779 258.7283 101.2759 15.44615470609205
UTC large
Height (km)
Speed (km/s)
/
Latitude / Longitude
Inclination (degrees)
Orbital Period (minutes)
Azimuth
Elevation
Range (km)
Doppler Factor

Next 0 passes for location: London (51.5072 / 0.1276)

Sorry there are no passes over London.